Location: Devore Heights
(34.2372°N, 117.4156°W)
Time: 19:10:11
(UTC+00:00)

Vanguard 1 Rocket - Pass Details

Date: 14 September 2024
Orbit: 650 x 4218 km, 34.3° (Epoch: 04 October)

Event Time Altitude Azimuth Distance (km) Brightness Sun altitude
Exits shadow 13:39:04 - 266° (W) 6,272 10.9 0.5°
Rises 13:39:13 0° 267° (W) 6,242 10.9 0.5°
Reaches altitude 10° 13:42:36 10° 267° (W) 5,598 10.8 1.2°
Maximum altitude 14:02:22 90° 1° (N) 3,961 10.8 5.3°
Drops below altitude 10° 14:29:08 10° 94° (E) 7,170 17.1 10.8°
Sets 14:34:13 0° 94° (E) 7,959 14.4 11.9°
